Powrót do katalogu

TIANFU DONGPO 08

AktywnyŁącznośćSSO
NORAD 54686·PAYLOAD·🇨🇳 China
Ta nazwa satelity nie została jeszcze potwierdzona przez oficjalne źródła.

Wystrzelony Dec 9, 2022 z Yellow Sea Launch Area

Loading…

Następne Przeloty (najbliższe 24 godziny)

TLE

ŚwieżeSource: Space-Track

Epoka: Sep 14, 2026, 14:24 UTC

1 54686U 22167E   26257.60057806  .00008082  00000-0  23906-3 0  9992
2 54686  97.6941  69.5136 0007395 201.3363 158.7572 15.35172934209038

Śledź TIANFU DONGPO 08 w czasie rzeczywistym z AllMySat

Download on the App Store